Location: Golden Meadow Estates
(41.6436°N, 88.2167°W)
Time: 00:40:14
(UTC+00:00)

Daily predictions for brighter satellites

Satellite Brightness Start Highest point End
(mag) Time Altitude Azimuth Time Altitude Azimuth Time Altitude Azimuth
Cosmos 158 Rocket 4.0 00:15:06 10° NNW 00:20:25 80° ENE 00:25:32 10° SSE
H-2A R/B 2.6 00:17:21 10° SE 00:21:48 35° ENE 00:26:21 10° N
Iridium 4 Rocket 3.5 00:20:32 10° S 00:25:18 64° E 00:30:33 10° N
ARGOS 4.0 00:21:05 10° SE 00:25:42 31° ENE 00:30:22 10° N
Cosmos 1437 3.3 00:24:46 10° N 00:27:30 31° ENE 00:30:12 10° SE
SJ 16-02 2.5 00:26:23 10° SW 00:30:37 48° WNW 00:34:53 10° N
CZ-2C R/B 3.9 00:27:06 10° NE 00:31:07 20° E 00:35:09 10° SE
NOSS 8 (H) 4.2 00:28:22 10° SW 00:31:43 87° WNW 00:34:45 10° NE
SL-16 R/B 4.1 00:28:19 10° NW 00:33:20 33° WSW 00:38:19 10° SSW
Milstar 3 Cent rocket 4.3 00:31:14 10° S 00:33:23 11° S 00:35:17 10° SSE
Cosmos 1378 Rocket 4.3 00:29:12 10° NNW 00:33:27 58° W 00:37:39 10° S
Cosmos 1939 Rocket 4.0 00:30:15 10° S 00:34:14 50° W 00:38:16 10° NNW
Lacrosse 5 rocket 3.7 00:31:23 10° WNW 00:34:39 21° NNW 00:38:03 10° NNE
Helios 1A Rocket 4.2 00:31:20 10° S 00:35:16 46° W 00:39:15 10° NNW
NOSS 2-2 (E) 3.2 00:33:08 10° SSW 00:36:31 51° ESE 00:40:09 10° NE
Okean 2 Rocket 4.2 00:33:43 10° SE 00:37:20 24° E 00:40:57 10° NE
CZ-2D R/B 4.2 00:36:58 10° S 00:40:46 53° W 00:44:34 10° NNW
Cosmos 2263 Rocket 2.2 00:35:29 10° SSW 00:41:03 86° WNW 00:46:40 10° NNE
Okean-O 3.3 00:36:53 10° S 00:41:15 59° W 00:45:38 10° NNW
DELTA 2 R/B (1) 3.9 00:36:24 10° W 00:41:52 61° SSW 00:46:52 12° ESE
HJ-1C 3.5 00:39:41 10° SSE 00:42:52 50° ENE 00:46:05 10° N
Cosmos 990 Rocket 4.4 00:38:13 10° SSW 00:43:20 68° WNW 00:48:29 10° NNE
SJ-11-01 4.3 00:38:44 10° SSE 00:43:22 60° ENE 00:48:01 10° N
Meteor 2-9 Rocket 4.3 00:38:41 10° S 00:44:33 83° E 00:50:23 10° NNE
NOSS 2-2 (D) 3.2 00:41:39 10° SSW 00:45:01 48° ESE 00:48:36 10° NE
CZ-2C R/B 3.1 00:41:13 10° SSE 00:46:23 79° ENE 00:51:52 10° N
Cosmos 1844 Rocket 3.7 00:44:22 10° SSE 00:48:32 22° E 00:52:43 10° NE
Cosmos 1300 Rocket 4.3 00:45:29 10° SSE 00:49:19 31° E 00:53:13 10° NNE
USA 116 3.7 00:48:03 10° N 00:51:31 75° WNW 00:55:22 10° SSW
CENTAUR R/B 4.2 00:47:33 10° NNW 00:54:09 28° NE 01:00:06 14° E
Ariane Rocket 3.7 00:50:37 11° SE 00:54:53 33° ENE 00:59:23 10° N
YAOGAN 1 3.3 00:50:57 10° S 00:55:12 58° W 00:59:29 10° NNW
USA 186 2.8 00:54:52 20° ESE 00:55:58 25° ENE 00:58:40 10° NNE
Cosmos 1943 3.2 00:53:36 10° NNW 00:59:17 89° ENE 01:04:57 10° SSE
Okean 2 4.0 00:56:16 10° NNW 01:00:24 61° W 01:04:29 10° S
Cosmos 1464 Rocket 4.0 00:56:58 10° SSE 01:02:53 55° E 01:08:51 10° NNE
Cosmos 2298 Rocket 4.5 00:58:52 10° SSE 01:03:45 38° ESE 01:08:38 10° NE
Meteor 1-12 Rocket 4.4 00:59:06 10° S 01:04:52 55° E 01:10:33 10° NNE
FREGAT/IRIS 4.2 01:09:19 17° NE 01:09:19 17° NE 01:10:21 10° NNE
Cosmos 1536 Rocket 4.4 01:04:30 10° NNE 01:08:26 30° ENE 01:09:59 24° ESE
Meteor 1-21 4.5 01:06:38 10° NNW 01:12:13 71° W 01:17:46 10° S
CZ-4 R/B 3.6 01:09:17 10° SSW 01:12:59 29° W 01:16:41 10° NW
OBJECT-B 2.9 01:14:11 15° NE 01:14:11 15° NE 01:15:19 10° NNE
Cosmos 1867 3.6 01:12:38 10° NNW 01:18:05 66° NE 01:21:22 24° SE
CSL-04 Rocket 4.3 01:12:49 10° S 01:18:07 59° WSW 01:23:33 10° NNW
Cosmos 2151 Rocket 3.8 01:14:13 10° SSE 01:18:28 47° E 01:22:45 10° NNE
Cosmos 1603 4.4 01:13:26 10° NNW 01:18:56 54° WSW 01:24:22 10° S
Cosmos 1025 Rocket 3.1 01:17:08 10° N 01:21:26 54° E 01:23:50 24° SSE
CZ-2C R/B 2.1 01:18:40 10° SW 01:21:40 26° S 01:22:04 25° SSE
Cosmos 372 Rocket 4.0 01:23:52 10° SSW 01:29:08 86° WNW 01:34:24 10° NNE
NOSS 2-2 (C) 3.9 01:26:12 10° SW 01:29:36 50° NW 01:33:18 10° NNE
Cosmos 1674 3.9 01:26:25 10° NNE 01:29:01 26° NE 01:29:01 26° NE
Cosmos 1891 Rocket 4.5 01:24:21 10° S 01:30:32 85° W 01:36:39 10° N
NOSS 3-2 (A) 4.3 01:24:26 10° NNW 01:31:49 53° NE 01:36:10 28° ESE
DMSP B5D2-2 4.1 01:26:35 10° NNE 01:31:49 58° E 01:37:00 10° S
Cosmos 2150 Rocket 4.0 01:28:24 10° S 01:33:40 66° ESE 01:39:04 10° NNE
Meteor 2-5 Rocket 4.5 01:32:37 10° N 01:37:36 31° ENE 01:38:03 31° E
BREEZE-M DEB (TANK) 3.1 01:35:20 10° WNW 01:38:38 79° NNE 01:42:24 31° ESE
MOS 1 Rocket 4.5 01:38:10 10° N 01:42:21 40° WNW 01:46:23 10° SW
Cosmos 1707 3.4 01:40:00 10° NNW 01:43:44 52° W 01:46:32 16° SSW
Cosmos 1125 Rocket 3.6 01:38:42 10° S 01:43:50 53° ESE 01:49:00 10° NNE
SJ-6B 2.5 01:44:19 62° SSE 01:44:54 86° ENE 01:48:39 10° NNW
Abrixas rocket 4.1 01:45:33 10° NW 01:47:39 20° N 01:47:39 20° N
Resurs 01 Rocket 2.8 01:49:34 29° NE 01:49:34 29° NE 01:52:37 10° N
USA 234 3.1 01:44:50 10° NE 01:51:24 73° SE 01:57:56 10° SW
ISS -2.7 01:49:35 10° WSW 01:52:48 42° NNW 01:53:13 39° N
Nadezhda 4 Rocket 3.9 01:53:10 10° N 01:59:18 86° W 02:03:08 24° S
Cosmos 2034 Rocket 4.1 01:53:36 10° SSW 01:59:58 76° W 02:06:21 10° N
Cosmos 468 4.4 01:55:23 10° NNW 02:00:45 82° ENE 02:01:53 57° SSE
H-2A R/B 4.0 01:57:09 10° SSW 02:01:16 26° W 02:05:29 10° NW
Meteor 1-24 Rocket 4.4 01:58:31 10° N 02:02:58 37° ENE 02:02:58 37° ENE
ARIANE 5 R/B 4.5 02:07:56 19° NNE 02:07:56 19° NNE 02:09:36 10° N
NOSS 3-2 (C) 4.2 01:58:43 10° NNW 02:06:09 56° NE 02:08:32 43° E
CZ-2C R/B 3.3 02:06:17 10° N 02:11:42 56° WNW 02:17:09 10° SSW
Cosmos 1048 Rocket 4.0 02:09:09 10° NNW 02:14:29 80° WSW 02:15:16 64° S
Lacrosse 5 rocket 4.3 02:14:01 10° NNW 02:15:21 11° N 02:16:43 10° NNE
Okean 1 Rocket 3.7 02:19:54 49° N 02:19:54 49° N 02:23:14 10° N
Cosmos 1844 3.7 02:15:09 10° SSW 02:20:52 79° WNW 02:26:34 10° NNE
Resurs 1-3 4.2 02:27:34 56° NW 02:27:34 56° NW 02:31:17 10° NNW
ATLAS 2AS CENTAUR R/B 3.4 02:23:24 10° SSW 02:33:18 46° ENE 02:38:54 10° NE
Cosmos 1844 Rocket 3.4 02:26:35 10° SW 02:31:59 51° WNW 02:37:27 10° NNE
Cosmos 1634 Rocket 3.8 02:32:52 79° S 02:33:17 88° E 02:39:30 10° N
Cosmos 2285 Rocket 4.2 02:32:52 10° SSW 02:39:06 67° WNW 02:45:27 10° NNE
OBJECT-B 4.1 02:47:22 13° NW 02:47:22 13° NW 02:47:57 10° NW
CENTAUR R/B 3.1 02:37:49 10° NW 02:46:03 83° NE 02:47:17 69° SE
SPOT 3 Rocket 4.2 02:46:18 51° W 02:46:18 51° W 02:51:08 10° NNW
Terra 4.4 02:54:47 12° NNE 02:54:47 12° NNE 02:55:08 10° NNE
ATLAS 3B R/B 3.6 02:45:52 10° NNW 02:51:46 37° NE 02:51:46 37° NE
USA 238 DEB 4.0 02:47:32 10° NW 02:54:42 62° WSW 02:55:26 59° SSW
USA 238 4.0 02:47:38 10° NW 02:54:48 63° WSW 02:55:30 60° SW
Cosmos 1833 Rocket 4.1 02:51:20 10° N 02:54:32 29° NNE 02:54:32 29° NNE
Cosmos 2026 Rocket 4.4 02:58:56 10° NNW 03:05:09 58° W 03:05:12 58° W
Resurs 01 Rocket 4.2 03:27:09 18° WNW 03:27:09 18° WNW 03:28:47 10° NW
USA 234 4.3 03:29:33 17° NNE 03:34:07 41° NNW 03:40:08 10° W
Cosmos 2082 Rocket 4.1 03:31:44 10° NNW 03:33:54 23° N 03:33:54 23° N
ATLAS 2AS CENTAUR R/B 4.1 04:15:12 10° WSW 04:22:32 39° NW 04:29:48 10° NNE
SL-16 R/B 4.5 07:12:44 22° N 07:12:44 22° N 07:14:51 10° N
USA 267 3.8 07:59:21 10° NE 08:04:18 55° ENE 08:04:18 55° ENE
Lacrosse 5 3.9 08:09:35 24° ENE 08:09:35 24° ENE 08:11:40 10° NE
ADEOS II 3.5 08:19:25 10° NNE 08:22:11 32° NNE 08:22:11 32° NNE
Nadezhda 3 Rocket 4.2 08:32:55 63° ENE 08:32:55 63° ENE 08:38:38 10° NNE
IDEFIX/ARIANE 42P 3.5 08:32:08 10° NNE 08:36:53 45° E 08:36:53 45° E
USA 234 3.9 08:33:27 10° ESE 08:39:44 53° NNE 08:46:02 10° NW
Cosmos 2369 4.1 08:42:33 62° NE 08:42:33 62° NE 08:47:25 10° NNE
CZ-3B R/B 4.1 08:44:40 22° NNE 08:44:40 22° NNE 08:47:37 10° NE
ARIANE 5 R/B 3.2 08:39:19 10° NNE 08:43:09 50° NE 08:43:09 50° NE
CZ-2D R/B 4.2 08:45:54 10° NNW 08:47:19 16° NNW 08:47:19 16° NNW
ATLAS 5 CENTAUR R/B 4.1 08:54:03 13° NNW 08:54:03 13° NNW 08:55:22 10° N
SJ 16-02 4.2 08:55:40 10° NNE 08:58:37 17° ENE 09:01:33 10° ESE
Resurs 1-4 Rocket 4.3 08:59:17 10° NNW 09:00:15 13° NNW 09:00:15 13° NNW
H-2A R/B 3.8 08:59:58 10° SE 09:03:49 32° ENE 09:07:47 10° N
Cosmos 2360 4.1 09:06:43 80° NW 09:06:43 80° NW 09:12:22 10° NNE
Cosmos 2082 4.4 09:02:52 10° NNW 09:15:50 - SSE 09:06:31 41° NNW
Meteor 1-26 Rocket 3.9 09:13:42 82° W 09:13:45 83° W 09:19:11 10° N
ASTEX 1 3.3 09:09:17 10° N 09:14:18 87° E 09:14:18 87° E
USA 307 3.8 09:17:10 42° N 09:17:10 42° N 09:20:25 10° NE
BREEZE-M DEB (TANK) 3.9 09:17:25 39° ENE 09:17:25 39° ENE 09:20:41 10° ENE
BREEZE-M DEB (TANK) 4.2 09:13:56 37° SSW 09:16:42 50° SSE 09:20:47 10° ENE
CZ-2C R/B 4.0 09:13:11 10° NNE 09:17:51 34° E 09:22:32 10° SSE
Cosmos 1697 Rocket 3.0 09:19:34 47° NW 09:19:34 47° NW 09:24:40 10° NNE
USA 308 3.8 09:20:08 42° N 09:20:08 42° N 09:23:31 10° NE
ERBS 4.3 09:21:44 24° ESE 09:21:44 24° ESE 09:23:57 10° ENE
SL-4 R/B 4.5 09:19:51 15° SSE 09:21:19 17° SE 09:24:19 10° E
Meteor 1-25 Rocket 4.3 09:16:26 10° NNW 09:21:47 59° WNW 09:21:47 59° WNW
Cosmos 1980 Rocket 2.1 09:22:31 66° SW 09:23:21 83° WNW 09:29:04 10° NNE
BREEZE M DEB (TANK) 4.3 09:09:06 10° WNW 09:27:15 72° NNE 09:32:00 10° ESE
Cosmos 2322 Rocket 4.2 09:24:43 10° SSE 09:29:16 26° ESE 09:33:51 10° NE
Landsat 5 4.1 09:25:15 10° SSE 09:29:42 63° ENE 09:34:09 10° N
USA 276 4.4 09:31:03 21° N 09:31:03 21° N 09:32:56 10° NE
Cosmos 1782 3.8 09:32:44 36° NNW 09:32:44 36° NNW 09:35:20 10° N
Cosmos 2263 Rocket 3.2 09:28:39 10° NNW 09:34:05 46° ENE 09:39:32 10° SE
SL-16 R/B 3.6 09:31:49 10° S 09:36:57 36° ESE 09:42:05 10° NE
Meteor 1-14 Rocket 4.0 09:34:22 10° NNW 09:39:59 76° W 09:45:30 10° S
CZ-2C R/B 3.0 09:36:56 10° N 09:40:05 55° NNW 09:40:05 55° NNW
Spot 4 Rocket 4.1 09:36:07 10° N 09:41:06 52° WNW 09:41:39 49° W
Cosmos 1515 Rocket 4.2 09:43:48 39° NW 09:43:48 39° NW 09:47:18 10° N
NOSS 3-3 (A) 3.8 09:45:00 35° SSW 09:47:38 85° ESE 09:54:03 10° NE
NOSS 3-3 (C) 3.8 09:45:10 35° SSW 09:47:46 85° ESE 09:54:06 10° NE
USA 267 4.1 09:42:40 10° NE 09:48:32 37° NNW 09:51:38 24° WNW
Cosmos 1238 Rocket 3.9 09:42:34 10° NNW 09:49:07 67° W 09:55:06 10° S
Lacrosse 5 2.8 09:48:47 30° WNW 09:49:54 33° NNW 09:54:31 10° NNE
CSL-04 DEB 4.4 09:46:41 10° S 09:50:57 79° WSW 09:55:19 10° NNW
Meteor 2-6 Rocket 4.2 09:48:56 17° S 09:53:25 87° W 09:59:15 10° N
IRIDIUM 104 4.4 09:50:01 10° N 09:55:15 76° E 10:00:27 10° S
Cosmos 921 Rocket 2.8 09:55:09 42° SSW 09:56:29 77° WNW 10:00:40 10° NNE
CZ-4C R/B 3.2 09:57:19 53° WNW 09:57:19 53° WNW 10:00:30 10° NNW
Meteor 1-5 Rocket 4.1 09:52:01 10° N 09:57:21 83° E 10:02:46 10° S
Cosmos 44 3.3 09:58:36 42° W 09:59:33 50° NW 10:04:03 10° NNE
Cosmos 2228 Rocket 3.2 10:01:21 38° SW 10:02:36 52° W 10:06:55 10° N
Cosmos 1933 Rocket 4.4 09:59:20 10° NNW 10:02:26 31° WNW 10:02:26 31° WNW
ADEOS II 4.1 10:01:35 10° NW 10:03:06 12° NW 10:03:06 12° NW
ATLAS 2AS CENTAUR R/B 4.5 09:57:33 10° NNW 10:04:14 33° NE 10:10:28 10° E
IRIDIUM 114 4.3 09:59:09 10° N 10:04:25 88° WSW 10:09:37 10° S
USA 32 4.4 10:03:32 10° N 10:08:46 65° E 10:13:58 10° SSE
Cosmos 1934 Rocket 4.3 10:03:47 10° NNW 10:09:21 40° W 10:14:56 10° SSW
Meteor 1-4 Rocket 2.3 10:09:31 23° SSW 10:11:33 83° W 10:15:04 10° N
X-37B 1.4 10:10:31 30° NW 10:11:36 44° N 10:14:41 10° E
ADEOS 4.1 10:07:22 10° NNE 10:12:33 60° ESE 10:17:41 10° S
GENESIS II 4.2 10:11:43 33° SW 10:13:24 68° NW 10:17:27 10° NNE
IRIDIUM 103 4.2 10:08:18 10° N 10:13:32 73° W 10:18:42 10° S
Cosmos 1536 3.9 10:11:30 10° N 10:15:28 48° E 10:19:24 10° SSE
IDEFIX/ARIANE 42P 3.7 10:12:20 10° NNW 10:16:28 24° WNW 10:17:40 22° W
Cosmos 1484 Rocket 3.8 10:15:18 10° NNE 10:19:11 49° E 10:23:04 10° S
Cosmos 389 Rocket 4.4 10:21:42 16° NW 10:21:42 16° NW 10:23:11 10° NNW
ADEOS Rocket 3.2 10:14:03 10° SSE 10:21:05 86° WSW 10:27:24 10° NNW
Cosmos 1869 Rocket 3.6 10:18:10 10° NNW 10:22:24 54° W 10:26:36 10° S
USA 234 3.4 10:16:28 10° SSE 10:22:45 50° SW 10:29:03 10° WNW
ARIANE 5 R/B 4.1 10:19:59 10° NNW 10:22:53 15° WNW 10:23:29 15° WNW
ALOS 3.0 10:18:18 10° NNE 10:22:55 54° E 10:27:27 10° S
Meteor 1-11 Rocket 3.7 10:18:33 10° N 10:24:23 90° W 10:30:02 10° S
Cosmos 1937 Rocket 4.2 10:20:43 10° NNW 10:25:48 56° ENE 10:30:50 10° SE
Cosmos 1153 Rocket 4.5 10:19:41 10° N 10:26:04 75° W 10:32:21 10° S
Meteor 1-31 Rocket 3.6 10:26:17 10° NNE 10:30:03 52° E 10:33:48 10° S
Cosmos 1862 Rocket 4.5 10:26:05 10° S 10:30:20 51° E 10:34:35 10° NNE
ERS-2 2.4 10:27:17 10° S 10:30:46 42° W 10:34:16 10° NNW
Cosmos 1605 Rocket 4.4 10:26:49 10° NNW 10:32:46 42° W 10:38:42 10° SSW
FALCON 9 DEB 3.6 10:31:12 15° SSW 10:33:48 55° SE 10:37:10 10° ENE
Cosmos 841 Rocket 4.1 10:30:08 10° S 10:35:14 59° ESE 10:40:24 10° NNE
Meteor 1-27 Rocket 3.8 10:29:50 10° SSW 10:35:45 78° W 10:41:43 10° N
SJ 16-02 1.6 10:33:14 10° NNW 10:37:26 45° WSW 10:41:37 10° S
PSLV R/B 4.3 10:35:08 10° N 10:38:52 32° WNW 10:42:13 12° SW
H-2A R/B 3.2 10:36:20 10° SSW 10:39:49 23° W 10:43:23 10° NW
Cosmos 1763 Rocket 3.6 10:40:23 10° SSW 10:45:37 58° WNW 10:50:52 10° NNE
Cosmos 1000 Rocket 4.5 10:40:19 10° S 10:46:32 86° W 10:52:44 10° N
Cosmos 1570 Rocket 4.3 10:42:36 10° SSW 10:47:53 76° ESE 10:53:14 10° NNE
Cosmos 1812 4.1 10:47:59 14° WSW 10:50:03 20° WNW 10:52:57 10° NNW
SJ-12 4.4 10:51:43 10° NNE 10:55:51 67° ESE 10:59:56 10° S
CZ-2C R/B 3.4 10:51:32 10° N 10:55:57 30° WNW 11:00:24 10° SW
ERBS 3.4 10:54:41 12° W 10:57:16 29° NW 11:00:16 10° NNE
Cosmos 2360 Rocket 2.5 10:51:40 10° SSW 10:57:18 74° ESE 11:02:58 10° NNE
CZ-4B R/B 2.0 10:56:28 10° SSW 10:59:17 31° W 11:02:11 10° NNW
SL-4 R/B 2.4 10:55:51 10° SW 11:00:27 90° NW 11:05:17 10° NE
SL-8 R/B 3.7 10:56:57 10° WNW 11:01:42 69° SSW 11:06:27 10° SE
Meteor 2-20 4.5 10:56:17 10° S 11:02:26 84° W 11:08:36 10° N
Cosmos 1725 Rocket 4.4 10:56:23 10° N 11:02:34 69° E 11:08:42 10° SSE
COSMO-SKYMED 1 2.9 10:58:38 10° SSE 11:02:57 75° ENE 11:07:18 10° N
Cosmos 1666 3.5 10:59:48 10° NNW 11:03:06 28° W 11:06:23 10° SSW
Cosmos 1544 4.3 11:03:19 10° N 11:06:49 46° E 11:10:15 10° SSE
DEBRIS 3.6 11:04:28 10° WNW 11:07:13 44° SSW 11:14:28 10° SE
USA 276 4.4 11:04:59 10° NW 11:07:23 19° N 11:09:47 10° NE
Cosmos 2100 Rocket 4.1 11:01:32 10° NNW 11:07:45 57° W 11:13:56 10° SSW
METEOR-M 4.1 11:02:45 10° N 11:08:04 68° WNW 11:13:22 10° SSW
Cosmos 1980 Rocket 4.0 11:05:11 10° W 11:08:15 15° NW 11:11:21 10° NNW
Cosmos 990 Rocket 4.5 11:04:49 10° NW 11:09:34 37° WSW 11:14:19 10° SSW
Cosmos 1802 Rocket 4.0 11:04:21 10° NNW 11:10:31 72° W 11:16:44 10° S
Gbstr 26 Del rocket 4.4 11:04:23 10° NW 11:12:20 80° SW 11:19:06 10° SE
FENGYUN 3A 3.9 11:07:09 10° N 11:12:23 52° WNW 11:17:36 10° SW
Cosmos 2322 Rocket 2.6 11:07:34 10° SW 11:13:00 46° WNW 11:18:29 10° NNE
Cosmos 44 Rocket 3.2 11:10:37 10° SSW 11:15:19 84° NW 11:20:11 10° NNE
